Weather History for Beaufort, NC

Change the Weather History Date:

Sunday, September 2, 2012

  Actual Average Record
Temperature  
Mean Temperature 81 °F -  
Max Temperature 88 °F 85 °F 90 °F (1950)
Min Temperature 75 °F 69 °F 56 °F (1967)
Cooling Degree Days 16    
Growing Degree Days 31 (Base 50)    
Moisture  
Dew Point 76 °F    
Average Humidity 87    
Maximum Humidity 97    
Minimum Humidity 72    
Precipitation  
Precipitation 0.03 in - - ()
Sea Level Pressure  
Sea Level Pressure 30.01 in    
Wind  
Wind Speed 4 mph (NNW)    
Max Wind Speed 10 mph    
Max Gust Speed -    
Visibility 8 miles    
Events Rain    
Averages and records for this station are not official NWS values.
T = Trace of Precipitation, MM = Missing Value Source: NWS Daily Summary

Daily Weather History Graph

Daily Weather History Graph

Search for Another Location

Airport:

Trip Planner

Search our weather history database for the weather conditions in past years. The results will help you decide how hot, cold, wet, or windy it might be!

Date:

Astronomy

Sep. 02, 2012 Rise Set
Actual Time 6:40 AM EDT 7:31 PM EDT
Civil Twilight 6:14 AM EDT 7:56 PM EDT
Nautical Twilight 5:44 AM EDT 8:27 PM EDT
Astronomical Twilight 5:13 AM EDT 8:58 PM EDT
Moon 8:26 PM EDT (9/2) 8:38 AM EDT (9/2)
Length of Visible Light 13h 41m
Length of Day
12h 50m
Waning Gibbous, 95% of the Moon is Illuminated
Sep 2
Waning Gibbous
Sep 8
Last Quarter
Sep 15
New
Sep 22
First Quarter
Sep 29
Full

Hourly Weather History & Observations

Time (EDT) Temp. Heat Index Dew Point Humidity Pressure Visibility Wind Dir Wind Speed Gust Speed Precip Events Conditions
12:56 AM 79.0 °F - 73.0 °F 82% 30.03 in 10.0 mi WNW 6.9 mph - N/A   Clear
1:56 AM 79.0 °F - 73.9 °F 84% 30.02 in 10.0 mi NW 6.9 mph - N/A   Clear
2:56 AM 78.1 °F - 75.0 °F 90% 30.01 in 10.0 mi NNW 4.6 mph - N/A   Clear
3:56 AM 77.0 °F - 75.0 °F 94% 30.01 in 10.0 mi North 3.5 mph - N/A   Clear
4:56 AM 78.1 °F - 75.9 °F 93% 30.01 in 9.0 mi Calm Calm - N/A   Clear
5:56 AM 77.0 °F - 75.9 °F 96% 30.01 in 9.0 mi Calm Calm - N/A   Clear
6:56 AM 77.0 °F - 75.9 °F 96% 30.02 in 6.0 mi Calm Calm - N/A   Clear
7:56 AM 79.0 °F - 77.0 °F 94% 30.02 in 7.0 mi Calm Calm - N/A   Clear
8:56 AM 82.0 °F 90.2 °F 77.0 °F 85% 30.02 in 8.0 mi Calm Calm - N/A   Clear
9:56 AM 84.0 °F 93.7 °F 77.0 °F 79% 30.02 in 8.0 mi Variable 3.5 mph - N/A   Clear
10:56 AM 86.0 °F 96.0 °F 75.9 °F 72% 30.03 in 9.0 mi SW 4.6 mph - N/A   Unknown
11:56 AM 87.1 °F 99.8 °F 78.1 °F 74% 30.04 in 8.0 mi SSW 5.8 mph - N/A   Clear
12:56 PM 87.1 °F 101.5 °F 79.0 °F 77% 30.02 in 8.0 mi South 5.8 mph - N/A   Clear
1:56 PM 86.0 °F 98.3 °F 78.1 °F 77% 30.01 in 9.0 mi SW 5.8 mph - N/A   Partly Cloudy
2:56 PM 84.9 °F 95.3 °F 77.0 °F 77% 30.01 in 9.0 mi North 8.1 mph - N/A   Scattered Clouds
3:56 PM 79.0 °F - 75.9 °F 90% 29.99 in 7.0 mi Calm Calm - 0.00 in Rain Light Rain
4:56 PM 79.0 °F - 75.0 °F 88% 29.98 in 7.0 mi NE 5.8 mph - 0.00 in Rain Light Rain
5:56 PM 78.1 °F - 75.9 °F 93% 29.98 in 6.0 mi Calm Calm - 0.02 in   Clear
6:56 PM 78.1 °F - 75.0 °F 90% 30.01 in 8.0 mi NW 10.4 mph - N/A   Clear
7:56 PM 75.9 °F - 73.9 °F 94% 30.01 in 10.0 mi ENE 3.5 mph - 0.00 in   Scattered Clouds
8:56 PM 75.9 °F - 73.9 °F 94% 30.02 in 9.0 mi ENE 3.5 mph - 0.01 in   Clear
9:56 PM 77.0 °F - 73.9 °F 90% 30.01 in 10.0 mi ESE 3.5 mph - N/A   Mostly Cloudy
10:56 PM 75.9 °F - 75.0 °F 97% 30.02 in 9.0 mi Calm Calm - N/A   Clear